Location: Góry Miechowskie
(50.3599°N, 20.1803°E)
Time: 08:05:18
(UTC+00:00)

Courier 1B - Pass Details

Date: 18 September 2024
Orbit: 962 x 1208 km, 28.3° (Epoch: 12 October)

Event Time Altitude Azimuth Distance (km) Brightness Sun altitude
Rises 12:24:44 0° 218° (SW) 3,831 11.6 35.8°
Reaches altitude 10° 12:30:12 10° 184° (S) 2,951 11.0 35.3°
Maximum altitude 12:31:49 11° 171° (S) 2,911 10.7 35.1°
Drops below altitude 10° 12:33:27 10° 158° (SSE) 2,993 10.5 35.0°
Sets 12:39:10 0° 124° (SE) 4,020 10.7 34.4°
